Flag for U.S.A. Weather past 2 weeks in Midland, Texas, U.S.A.

Now
64 °F

Clear.


Feels Like: 64 °F
Forecast: 60 / 92 °F
Wind: 9 mph from South

Location: Midland - Midland Airpark


UV Index: 7 (High)

Visibility: 10 mi


Pressure: 29.97 "Hg

Humidity: 27%

Dew point: 29 °F

Location of MidlandLocation

Historic Weather in Midland

°F

Midland temperature yesterday

Maximum temperature yesterday: 81 °F (at 6:15 PM)
Minimum temperature yesterday: 62 °F (at 6:15 AM)
Average temperature yesterday: 72 °F

Past Weeks' High & Low Weather Summary

 TemperatureHumidityPressure
High92 °F (Apr 12, 3:35 PM)90% (Apr 19, 11:55 PM)30.35 "Hg (Apr 19, 11:55 PM)
Low33 °F (Apr 15, 6:15 AM)4% (Apr 10, 5:15 PM)29.65 "Hg (Apr 13, 5:35 PM)
Average69 °F39%29.99 "Hg
* Reported Apr 10 2:15 AM — Apr 25 2:55 AM, Midland, Weather by CustomWeather, © 2014

Note: Actual official high and low records may vary slightly from our data, if they occured in-between our weather recording intervals... More about our weather records

Advertising

Historic Weather Conditions — Data for Previous 24 hours

 ConditionsComfort  
Time TempWeatherWind HumidityBarometerVisibility
2:55 AM
Apr 25
63 °FClear.9 mph28%29.97 "Hg10 mi
2:15 AM65 °FClear.8 mph26%29.99 "Hg10 mi
1:55 AM65 °FClear.7 mph25%29.98 "Hg10 mi
1:35 AM65 °FClear.7 mph25%29.98 "Hg10 mi
1:15 AM65 °FClear.6 mph26%29.98 "Hg10 mi
12:55 AM65 °FClear.6 mph25%29.98 "Hg10 mi
12:35 AM66 °FClear.7 mph25%29.98 "Hg10 mi
12:15 AM67 °FClear.6 mph24%29.98 "Hg10 mi
11:55 PM
Apr 24
68 °FClear.5 mph23%29.99 "Hg10 mi
11:15 PM70 °FClear.6 mph22%30.00 "Hg10 mi
10:55 PM71 °FClear.5 mph20%30.00 "Hg10 mi
10:15 PM69 °FClear.No wind23%30.00 "Hg10 mi
9:55 PM73 °FClear.5 mph19%29.99 "Hg10 mi
9:35 PM72 °FClear.5 mph20%29.99 "Hg10 mi
9:15 PM72 °FSunny.3 mph20%29.98 "Hg10 mi
8:55 PM73 °FSunny.5 mph19%29.98 "Hg10 mi
8:35 PM75 °FSunny.3 mph16%29.97 "Hg10 mi
8:15 PM76 °FSunny.3 mph15%29.97 "Hg10 mi
7:55 PM78 °FSunny.5 mph14%29.96 "Hg10 mi
7:35 PM79 °FSunny.6 mph13%29.96 "Hg10 mi
7:15 PM80 °FSunny.8 mph13%29.96 "Hg10 mi
6:55 PM81 °FSunny.7 mph12%29.96 "Hg10 mi
6:15 PM81 °FSunny.9 mph12%29.96 "Hg10 mi
5:55 PM81 °FSunny.5 mph13%29.96 "Hg10 mi
5:35 PM80 °FSunny.No wind13%29.97 "Hg10 mi
5:15 PM81 °FSunny.5 mph12%29.97 "Hg10 mi
4:55 PM81 °FSunny.No wind13%29.97 "Hg10 mi
4:15 PM81 °FSunny.8 mph13%29.98 "Hg10 mi
3:55 PM80 °FSunny.12 mph14%29.99 "Hg10 mi
3:35 PM80 °FSunny.9 mph14%29.99 "Hg10 mi
3:15 PM79 °FSunny.15 mph15%29.99 "Hg10 mi
2:55 PM78 °FSunny.7 mph14%30.00 "Hg10 mi
2:15 PM77 °FSunny.17 mph16%30.01 "Hg10 mi
1:55 PM77 °FSunny.13 mph17%30.02 "Hg10 mi
1:15 PM75 °FSunny.16 mph20%30.03 "Hg10 mi
12:55 PM74 °FSunny.20 mph20%30.03 "Hg7 mi
12:35 PM73 °FSunny.16 mph22%30.03 "Hg7 mi
12:15 PM72 °FSunny.16 mph23%30.03 "Hg5 mi
11:55 AM70 °FSunny.15 mph25%30.04 "Hg5 mi
11:15 AM69 °FHaze.20 mph28%30.03 "Hg3 mi
10:55 AM67 °FHaze.21 mph28%30.03 "Hg3 mi
10:35 AM66 °FOvercast.17 mph30%30.04 "Hg3 mi
10:15 AM65 °FOvercast.21 mph30%30.03 "Hg2 mi
9:55 AM65 °FOvercast.17 mph28%30.02 "Hg2 mi
9:35 AM66 °FScattered clouds.21 mph22%30.00 "Hg4 mi
9:15 AM67 °FSunny.18 mph17%30.00 "Hg7 mi
8:55 AM67 °FSunny.16 mph18%29.98 "Hg10 mi
8:35 AM66 °FSunny.12 mph21%29.96 "Hg10 mi
8:15 AM64 °FSunny.9 mph23%29.94 "Hg10 mi
7:55 AM62 °FClear.10 mph27%29.93 "Hg10 mi
7:15 AM62 °FClear.7 mph33%29.90 "Hg10 mi
6:55 AM63 °FClear.7 mph34%29.89 "Hg10 mi
6:35 AM63 °FClear.7 mph42%29.87 "Hg10 mi
6:15 AM62 °FClear.7 mph55%29.86 "Hg10 mi
5:55 AM62 °FClear.7 mph60%29.85 "Hg10 mi
5:15 AM65 °FClear.8 mph62%29.84 "Hg10 mi
4:55 AM66 °FClear.7 mph62%29.83 "Hg10 mi
4:35 AM68 °FClear.9 mph61%29.82 "Hg10 mi
4:15 AM68 °FClear.9 mph63%29.81 "Hg10 mi
3:55 AM70 °FClear.8 mph61%29.79 "Hg10 mi
3:35 AM70 °FClear.13 mph60%29.77 "Hg10 mi
3:15 AM71 °FClear.10 mph59%29.77 "Hg10 mi
Weather by CustomWeather, © 2014

See weather overview